Regional Weather Roundup
Issued by NWS

Home | Current Version | Previous Version | Text Only | Print | Product List | Glossary On
Versions: 1 2 3 4 5 6 7 8 9 10 11 12 13 14 15 16 17 18 19 20 21 22 23 24 25 26 27 28 29 30 31 32 33 34 35 36 37 38 39 40 41 42 43 44 45 46 47 48 49 50
000
ASUS42 KKEY 010110
RWRKEY

FLORIDA REGIONAL WEATHER ROUNDUP FOR THE FLORIDA KEYS
NATIONAL WEATHER SERVICE KEY WEST FLORIDA
900 PM EDT SUN APR 30 2017

...SOUTH FLORIDA AND THE KEYS...

CITY           SKY/WX    TMP DP  RH WIND       PRES   REMARKS
FORT MYERS     CLEAR     82  69  64 SE10      30.05R
SW REGIONAL AP PTCLDY    81  67  62 E12       30.06R
NAPLES         CLEAR     82  68  62 E14       30.05R
MIAMI          MOCLDY    81  71  71 E18       30.08R
WEST KENDALL   CLOUDY    78  72  81 E17       30.07R
HOMESTEAD      MOCLDY    77  75  94 E13       30.06R
MARATHON         N/A     81  73  76 E12G21    30.03R
BOCA CHICA NAS PTCLDY    80  71  74 E26       30.02R
KEY WEST INTL  PTCLDY    80  73  79 E23G32    30.02R

...INTERNATIONAL WEATHER...

CITY           SKY/WX    TMP DP  RH WIND       PRES   REMARKS
NASSAU BAHAMAS PTCLDY    81  63  54 E17       30.11R
CANCUN MEXICO  MOCLDY    82  79  89 E12       29.91R HX  93
COZUMEL MEXICO PTCLDY    82  77  83 SE10      29.88R HX  91

ADJACENT COASTAL WATERS...

STATION/POSITION TIME  SKY/WX   TEMP    WIND        PRES    WAVE
                                AIR SEA DIR/SP/G            HT/PER
                 (UTC)          (F)     (DEG/KT/KT) (MB)    (FT/S)
PULASKI SHOAL LI 0000            80     110/ 21/ 24 1015.5R
SAND KEY         0050            79     120/ 24/ 28 1016.8R
LONG KEY         0000            80 81  110/ 17/ 19 1017.1R
MOLASSES REEF    0000            79 80   90/ 11/ 13 1017.7R
FOWEY ROCKS      0000            79 80   80/ 25/ 26 1018.4R
Buoy 42097       0100                                 N/A     5/ 6

$$



USA.gov is the U.S. government's official web portal to all federal, state and local government web resources and services.